Overview Statistics Trail Chart Weather Telemetry Raw packets
 

This is the latest recevied weather packets stored in our database for station/object S57PNX-8. If no packets are shown the sender has not sent any weather packets the latest 10 day(s).

<< 2 3 4 5 6 7 8 >>
Time Temp. Humidity Pressure Rain* Wind** Luminosity Snow
1788625761 33.89° C 36% 1025.1 hPa - - - -
1788624862 36.11° C 33% 1025 hPa - - - -
1788623963 35.56° C 34% 1024.6 hPa - - - -
1788623070 35.56° C 33% 1024.5 hPa - - - -
1788622164 33.89° C 38% 1024.5 hPa - - - -
1788621265 30° C 46% 1024.4 hPa - - - -
1788620366 28.89° C 51% 1024.3 hPa - - - -
1788619467 28.33° C 56% 1024.3 hPa - - - -
1788618567 28.33° C 54% 1024.4 hPa - - - -
1788617668 27.78° C 53% 1024.6 hPa - - - -
1788616769 27.78° C 49% 1024.6 hPa - - - -
1788615870 27.78° C 48% 1024.5 hPa - - - -
1788614971 27.22° C 47% 1024.6 hPa - - - -
1788614079 27.22° C 46% 1024.6 hPa - - - -
1788613174 27.22° C 46% 1024.5 hPa - - - -
1788612275 26.67° C 46% 1024.7 hPa - - - -
1788611376 26.67° C 50% 1024.6 hPa - - - -
1788610477 26.11° C 47% 1024.6 hPa - - - -
1788609578 26.11° C 44% 1024.7 hPa - - - -
1788608680 26.11° C 47% 1024.8 hPa - - - -
1788607780 25.56° C 45% 1024.9 hPa - - - -
1788606882 25° C 45% 1024.8 hPa - - - -
1788606377 25° C 46% 1024.8 hPa - - - -
1788605473 25° C 45% 1024.8 hPa - - - -
1788604574 25° C 44% 1024.9 hPa - - - -

* Rain since midnight (hover to see other rain measurements)
** Current wind speed in m/s (hover to see current wind gust speed)